GCOM-C (SHIKISAI) (43065 NORAD) Tracking and Keplerian Element Data

This shows tracking and keplerian element data for the satellite.

Feedback or suggestion? Click here.




ElementValue
Catalog43065
NameGCOM-C (SHIKISAI)
Epoch Orbit11836
Epoch Day91.82340048
Epoch Year2020
RAAN165.9513
Inclination98.5951
Eccentricity0.0001242
Argument of Perigee112.3361
Mean Anonmoly247.7951
Mean Motion14.27294287
Decay Rate-2E-08
L11 43065U 17082A 20091.82340048 -.00000002 00000-0 16916-4 0 9997
L22 43065 98.5951 165.9513 0001242 112.3361 247.7951 14.27294287118363

Live tracking and technical data element details for GCOM-C (SHIKISAI) (NORAD 43065). GCOM-C (SHIKISAI) can be tracked NOW for your location showing map with azimuth and elevation plus other details from your city location.

Track the satellite on the map from your city or location and see movement details for azimuth, elevation, latitude, longitude, range, height, and movement on the map or in text.







IsCatalogInMostPopularTable: catalog: 43065, numindb: 332
Update: records affected: 1



GetName: 43065 GCOM-C (SHIKISAI)

Hit Count: updated at: Fri, 03 Apr 2020 06:40:31 GMT